Anchorage, AK

11:54 PM AKST on February 25, 2017 (GMT -0900)
Merrill

Weather History for PAMR - October, 2012

Change the Weather History Date:

Thursday, October 18, 2012

  Actual Average Record
Temperature  
Mean Temperature 27 °F -  
Max Temperature 35 °F 37 °F 55 °F (2010)
Min Temperature 19 °F 25 °F 3 °F (1997)
Degree Days  
Heating Degree Days 38    
Moisture  
Dew Point 16 °F    
Average Humidity 66    
Maximum Humidity 85    
Minimum Humidity 44    
Precipitation  
Precipitation 0.00 in - - ()
Sea Level Pressure  
Sea Level Pressure 29.78 in    
Wind  
Wind Speed 0 mph (NE)    
Max Wind Speed 5 mph    
Max Gust Speed -    
Visibility 10 miles    
Events      
Averages and records for this station are not official NWS values.
T = Trace of Precipitation, MM = Missing Value Source: NWS Daily Summary

Daily Weather History Graph

Daily Weather History Graph

Search for Another Location

Airport or City:

Trip Planner

Search our weather history database for the weather conditions in past years. The results will help you decide how hot, cold, wet, or windy it might be!

Date:

Astronomy

Oct. 18, 2012 Rise Set
Actual Time 8:51 AM AKDT 6:36 PM AKDT
Civil Twilight 8:06 AM AKDT 7:20 PM AKDT
Nautical Twilight 7:16 AM AKDT 8:10 PM AKDT
Astronomical Twilight 6:26 AM AKDT 9:00 PM AKDT
Moon 1:52 PM AKDT (10/18) 8:11 PM AKDT (10/18)
Length of Visible Light 11h 13m
Length of Day
9h 44m
Waxing Crescent, 15% of the Moon is Illuminated
Oct 18
Waxing Crescent
Oct 21
First Quarter
Oct 29
Full
Nov 6
Last Quarter
Nov 13
New

Hourly Weather History & Observations

Time (AKDT) Temp. Windchill Dew Point Humidity Pressure Visibility Wind Dir Wind Speed Gust Speed Precip Events Conditions
12:53 AM 28.9 °F - 14.0 °F 54% 29.69 in 10.0 mi Calm Calm - N/A   Mostly Cloudy
1:53 AM 28.9 °F - 14.0 °F 54% 29.70 in 10.0 mi Calm Calm - N/A   Scattered Clouds
2:53 AM 25.0 °F - 14.0 °F 63% 29.70 in 10.0 mi Calm Calm - N/A   Clear
3:53 AM 23.0 °F - 18.0 °F 81% 29.72 in 10.0 mi Calm Calm - N/A   Partly Cloudy
4:53 AM 21.0 °F - 16.0 °F 81% 29.73 in 10.0 mi Calm Calm - N/A   Clear
5:53 AM 19.9 °F - 16.0 °F 85% 29.74 in 10.0 mi Calm Calm - N/A   Clear
6:53 AM 19.9 °F - 15.1 °F 81% 29.75 in 10.0 mi Calm Calm - N/A   Clear
7:53 AM 19.9 °F - 15.1 °F 81% 29.77 in 10.0 mi Calm Calm - N/A   Scattered Clouds
8:53 AM 19.9 °F - 15.1 °F 81% 29.78 in 10.0 mi Calm Calm - N/A   Scattered Clouds
9:53 AM 21.0 °F - 16.0 °F 81% 29.79 in 10.0 mi Calm Calm - N/A   Scattered Clouds
10:53 AM 24.1 °F - 18.0 °F 77% 29.80 in 10.0 mi Calm Calm - N/A   Scattered Clouds
11:53 AM 28.9 °F - 16.0 °F 58% 29.80 in 10.0 mi Calm Calm - N/A   Scattered Clouds
12:53 PM 30.9 °F - 15.1 °F 52% 29.80 in 10.0 mi Calm Calm - N/A   Scattered Clouds
1:53 PM 32.0 °F 27.5 °F 16.0 °F 52% 29.80 in 10.0 mi NNE 4.6 mph - N/A   Clear
2:53 PM 34.0 °F - 16.0 °F 48% 29.80 in 10.0 mi Calm Calm - N/A   Clear
3:53 PM 35.1 °F - 15.1 °F 44% 29.79 in 10.0 mi Calm Calm - N/A   Clear
4:53 PM 34.0 °F - 15.1 °F 46% 29.79 in 10.0 mi Calm Calm - N/A   Clear
5:53 PM 34.0 °F - 14.0 °F 44% 29.79 in 10.0 mi Calm Calm - N/A   Clear
6:53 PM 30.9 °F 27.5 °F 18.0 °F 59% 29.80 in 10.0 mi SW 3.5 mph - N/A   Clear
7:53 PM 28.9 °F - 19.0 °F 67% 29.80 in 10.0 mi Calm Calm - N/A   Scattered Clouds
8:53 PM 26.1 °F - 19.0 °F 75% 29.81 in 10.0 mi Calm Calm - N/A   Clear
9:53 PM 27.0 °F - 18.0 °F 69% 29.82 in 10.0 mi Calm Calm - N/A   Partly Cloudy
10:53 PM 27.0 °F - 18.0 °F 69% 29.82 in 10.0 mi Calm Calm - N/A   Partly Cloudy
11:53 PM 24.1 °F 19.7 °F 18.0 °F 77% 29.83 in 10.0 mi ENE 3.5 mph - N/A   Partly Cloudy